Sign In / Sign Up
 
 
Wind Catchers Regatta. Leg 1. 26/06 - 02/07



Race Date (UTC) # I place II place III place Track
Race3698 2017-06-29 14:21:10 8 Caronte URU414 mk1926
Race3697 2017-06-29 14:19:56 8 Guga Grael 2 juliet Canelo
Race3696 2017-06-29 14:19:00 8 yarinya ITA8818 POL-8
Race3695 2017-06-29 14:17:42 8 La Chiappa Abruzzo jahon
Race3694 2017-06-29 14:16:54 8 ELIOTLUCAS 1 URU 392 Mon1411
Race3693 2017-06-29 14:14:27 8 SUR pigpug Vola Vola
Race3692 2017-06-29 14:12:41 8 juliet Юльчик Dolce&Maccarra
Race3691 2017-06-29 14:10:51 2 Gayle Force ALEgator
Race3690 2017-06-29 14:09:57 8 Bucashca pigpug Vola Vola
Race3689 2017-06-29 14:09:20 8 Abruzzo SUR krisifi
Race3688 2017-06-29 14:07:24 6 Dolce&Maccarra Imshi berksivrikaya
Race3687 2017-06-29 14:06:07 8 Guga Grael 2 juliet StorM
Race3686 2017-06-29 14:05:29 8 wa URU 392 Canelo
Race3685 2017-06-29 14:04:16 2 V Remo Yo mama
Race3684 2017-06-29 14:03:22 8 карасик Matrix Bucashca
Race3683 2017-06-29 14:01:14 8 SUR roundbic Abruzzo
Race3682 2017-06-29 14:00:35 8 Guga Grael 2 berksivrikaya StorM
Race3681 2017-06-29 13:59:33 8 no good Izsak krisifi
Race3680 2017-06-29 13:58:28 8 Hudsucker wa ханка
Race3679 2017-06-29 13:56:41 8 Norman Matrix Bucashca
Race3678 2017-06-29 13:55:51 6 Offer Isr looseleech BK-Bino
Race3677 2017-06-29 13:54:51 8 roundbic Aurora Mao
Race3676 2017-06-29 13:53:46 8 Guga Grael 2 Dolce&Maccarra Pangea
Race3675 2017-06-29 13:53:07 8 Gronk wa ханка
Race3674 2017-06-29 13:51:40 7 Cabrera SPOILER Hudsucker
Race3673 2017-06-29 13:50:08 6 SUR orion Matrix
Race3672 2017-06-29 13:49:02 6 no good roundbic BK-Bino
Race3671 2017-06-29 13:47:49 8 Why? berksivrikaya Guga Grael 2
Race3670 2017-06-29 13:46:11 8 Vola Vola StorM SailAlong
Race3669 2017-06-29 13:45:09 8 Hudsucker Cabrera Trouble
Race3668 2017-06-29 13:44:16 3 Gayle Force S/V Snicklefritz tas kolman
Race3667 2017-06-29 13:42:55 8 DANCER hokus Mao
Race3666 2017-06-29 13:42:16 8 Guga Grael 2 schneebrunzer Why?
Race3665 2017-06-29 13:41:28 8 StorM E Daje Rika
Race3664 2017-06-29 13:40:08 8 Izsak mopti Taleggio
Race3663 2017-06-29 13:37:55 8 SPOILER Egun Onak yemanja
Race3662 2017-06-29 13:36:50 8 jee1295 DANCER Mao
Race3661 2017-06-29 13:36:01 8 Why? Barbamerda Carlo
Race3660 2017-06-29 13:34:51 8 E Daje Hudsucker SUR
Race3659 2017-06-29 13:33:49 8 diogenes Ar Vag 2 Gayle Force
Race3658 2017-06-29 13:32:19 8 Vola Vola yemanja Piter
Race3657 2017-06-29 13:30:12 8 tryjon napoletanoDiM Snipe
Race3656 2017-06-29 13:28:06 8 zippo BK-Bino Pink Lady
Race3655 2017-06-29 13:27:14 8 Stugots Hudsucker berksivrikaya
Race3654 2017-06-29 13:24:21 5 yemanja layline Piter
Race3653 2017-06-29 13:23:35 8 BK-Bino nessuno 1955 zepistacho
Race3652 2017-06-29 13:21:23 5 Olisa José SV_andrey
Race3651 2017-06-29 13:20:31 8 Guga Grael 2 berksivrikaya nir ISR New Jersey
Race3650 2017-06-29 13:19:44 2 yemanja Hansaboots
Race3649 2017-06-29 13:18:19 4 Kon-Tiki zippo layline
Race3648 2017-06-29 13:17:55 8 Snipe Zara anti-fascist ITA 17700
Race3647 2017-06-29 13:16:04 7 Nik BK-Bino napoletanoDiM
Race3646 2017-06-29 13:15:20 3 Matushka ханка negriero
Race3645 2017-06-29 13:14:12 8 nir ISR New Jersey jksprrw Guga Grael 2
Race3644 2017-06-29 13:12:46 8 yemanja Hansaboots Orlica
Race3643 2017-06-29 13:10:44 8 Chrome Dome Zara anti-fascist Snipe
Race3642 2017-06-29 13:09:05 8 insomnia Juggernaut nessuno 1955
Race3641 2017-06-29 13:08:00 8 no good Gon Tinic Guga Grael 2
Race3640 2017-06-29 13:07:01 8 Hansaboots jksprrw dumaron
Race3639 2017-06-29 13:05:43 8 Snipe Stugots Alex
Race3638 2017-06-29 13:04:07 8 SailAlong ITA 17700 ABC
Race3637 2017-06-29 13:02:27 7 Dudko ханка Gronk
Race3636 2017-06-29 13:01:47 8 Guga Grael 2 Juggernaut Gon Tinic
Race3635 2017-06-29 13:00:55 8 Hansaboots Mao José
Race3634 2017-06-29 12:59:23 8 Alex sissa21 Stugots
Race3633 2017-06-29 12:58:04 8 Stato Brado SailAlong Vola Vola
Race3632 2017-06-29 12:57:02 3 Gronk insomnia A24
Race3631 2017-06-29 12:56:25 8 Pink Lady Dudko willywilly
Race3630 2017-06-29 12:55:02 8 007 Matushka Guga Grael 2
Race3629 2017-06-29 12:53:52 8 Gasparow Feten Zia RECBLAU ESP
Race3628 2017-06-29 12:52:53 8 SV_andrey Pangea club 283
Race3627 2017-06-29 12:50:54 8 piratinha Vola Vola Stato Brado
Race3626 2017-06-29 12:49:45 8 tas kolman tryjon Dudko
Race3625 2017-06-29 12:49:26 8 ITA8818 Guido 7888 krisifi
Race3624 2017-06-29 12:48:14 8 Guga Grael 2 TINTA nessuno 1955
Race3623 2017-06-29 12:46:48 8 Feten Zia MAX dumaron
Race3622 2017-06-29 12:45:03 8 Pascal jee1295 zippo
Race3621 2017-06-29 12:44:04 5 willywilly Korsar TEMPLARIO
Race3620 2017-06-29 12:42:54 8 Guido 7888 mopti AintThisCool
Race3619 2017-06-29 12:41:05 8 ESP-299 nessuno 1955 RECBLAU ESP
Race3618 2017-06-29 12:39:46 8 BeteNoir Guga Grael 2 Юльчик
Race3617 2017-06-29 12:38:09 8 Elan A Bord Gon Tinic Popeye
Race3616 2017-06-29 12:36:21 8 Snipe zeze pavlosfacebook
Race3615 2017-06-29 12:35:31 8 SUR ITA8818 寿広
Race3614 2017-06-29 12:34:26 8 Matrix Hudsucker Jamess
Race3613 2017-06-29 12:31:25 8 AbuDhabi Gasparow jee1295
Race3612 2017-06-29 12:29:10 8 ESP-299 50% jlaw
Race3611 2017-06-29 12:27:52 8 Hudsucker Matrix Imshi
Race3610 2017-06-29 12:26:26 8 CHAPARRON Gasparow thieumsleo
Race3609 2017-06-29 12:24:56 8 ITA 9 Pink Lady Dragon
Race3608 2017-06-29 12:24:01 7 jee1295 Musashi ME DUELE LA POYA
Race3607 2017-06-29 12:22:03 8 ESP-299 AUT-1599 treme
Race3606 2017-06-29 12:20:38 8 CHAPARRON peckerland Imshi
Race3605 2017-06-29 12:19:14 5 BRA 4037 Albarone ALEgator
Race3604 2017-06-29 12:17:55 8 Dragon Pink Lady Windwillow
Race3603 2017-06-29 12:17:01 8 pavlosfacebook Bacchus2305 ITA 9
Race3602 2017-06-29 12:15:30 8 La GattaGnuda Snipe ESP-299
Race3601 2017-06-29 12:14:20 6 ITA 9 jee1295 tas kolman
Race3600 2017-06-29 12:13:45 2 Jamile Jore ITA 505
Race3599 2017-06-29 12:12:49 8 Il_Ser Gronk edge